TimeCDT,TemperatureF,Dew PointF,Humidity,Sea Level PressureIn,VisibilityMPH,Wind Direction,Wind SpeedMPH,Gust SpeedMPH,PrecipitationIn,Events,Conditions,WindDirDegrees,DateUTC
12:15 AM,75.2,69.8,83,29.94,10.0,South,3.5,-,N/A,,Clear,190,2013-08-30 05:15:00
12:35 AM,75.2,71.6,89,29.93,10.0,South,4.6,-,N/A,,Clear,190,2013-08-30 05:35:00
12:55 AM,73.4,69.8,88,29.93,10.0,South,4.6,-,N/A,,Clear,170,2013-08-30 05:55:00
1:15 AM,71.6,69.8,94,29.93,10.0,SSE,6.9,-,N/A,,Clear,150,2013-08-30 06:15:00
1:35 AM,73.4,69.8,88,29.93,10.0,Calm,Calm,-,N/A,,Clear,0,2013-08-30 06:35:00
1:55 AM,73.4,69.8,88,29.93,10.0,South,4.6,-,N/A,,Clear,180,2013-08-30 06:55:00
2:15 AM,73.4,69.8,88,29.93,10.0,South,4.6,-,N/A,,Clear,180,2013-08-30 07:15:00
2:35 AM,73.4,69.8,88,29.92,10.0,South,4.6,-,N/A,,Clear,190,2013-08-30 07:35:00
2:55 AM,71.6,69.8,94,29.92,10.0,South,4.6,-,N/A,,Clear,190,2013-08-30 07:55:00
3:15 AM,73.4,69.8,88,29.92,10.0,South,4.6,-,N/A,,Clear,190,2013-08-30 08:15:00
3:35 AM,71.6,69.8,94,29.91,10.0,South,4.6,-,N/A,,Clear,180,2013-08-30 08:35:00
3:55 AM,73.4,69.8,88,29.91,10.0,South,4.6,-,N/A,,Clear,190,2013-08-30 08:55:00
4:15 AM,71.6,69.8,94,29.91,10.0,North,-9999.0,-,N/A,,Clear,0,2013-08-30 09:15:00
4:35 AM,71.6,69.8,94,29.90,10.0,SSW,5.8,-,N/A,,Clear,200,2013-08-30 09:35:00
4:55 AM,71.6,69.8,94,29.90,10.0,South,5.8,-,N/A,,Clear,190,2013-08-30 09:55:00
5:15 AM,71.6,69.8,94,29.90,10.0,South,4.6,-,N/A,,Clear,190,2013-08-30 10:15:00
5:35 AM,73.4,69.8,88,29.90,10.0,SSW,5.8,-,N/A,,Clear,200,2013-08-30 10:35:00
5:55 AM,73.4,69.8,88,29.90,10.0,SSW,4.6,-,N/A,,Clear,200,2013-08-30 10:55:00
6:15 AM,71.6,69.8,94,29.90,10.0,South,4.6,-,N/A,,Clear,190,2013-08-30 11:15:00
6:35 AM,69.8,69.8,100,29.90,7.0,South,3.5,-,N/A,,Clear,190,2013-08-30 11:35:00
6:55 AM,69.8,69.8,100,29.90,7.0,South,4.6,-,N/A,,Clear,190,2013-08-30 11:55:00
7:15 AM,71.6,69.8,94,29.91,7.0,SSW,3.5,-,N/A,,Clear,210,2013-08-30 12:15:00
7:35 AM,73.4,71.6,94,29.91,8.0,SW,4.6,-,N/A,,Clear,220,2013-08-30 12:35:00
7:55 AM,75.2,71.6,89,29.90,9.0,Calm,Calm,-,N/A,,Clear,0,2013-08-30 12:55:00
9:15 AM,78.8,71.6,78,29.90,-9999.0,SW,6.9,-,N/A,,Clear,220,2013-08-30 14:15:00
9:35 AM,80.6,73.4,79,29.90,9.0,SW,5.8,-,N/A,,Clear,220,2013-08-30 14:35:00
9:55 AM,82.4,73.4,74,29.89,9.0,SW,4.6,-,N/A,,Clear,230,2013-08-30 14:55:00
10:15 AM,84.2,73.4,70,29.89,9.0,Variable,5.8,-,N/A,,Clear,0,2013-08-30 15:15:00
10:35 AM,86.0,73.4,66,29.89,9.0,WSW,6.9,-,N/A,,Clear,240,2013-08-30 15:35:00
10:55 AM,86.0,73.4,66,29.89,9.0,Variable,6.9,-,N/A,,Clear,0,2013-08-30 15:55:00
11:15 AM,87.8,73.4,62,29.88,9.0,WSW,6.9,-,N/A,,Clear,240,2013-08-30 16:15:00
11:35 AM,89.6,73.4,59,29.87,9.0,Variable,5.8,-,N/A,,Clear,0,2013-08-30 16:35:00
11:55 AM,91.4,73.4,55,29.87,9.0,WSW,5.8,-,N/A,,Clear,250,2013-08-30 16:55:00
12:15 PM,91.4,73.4,55,29.87,9.0,Variable,4.6,-,N/A,,Clear,0,2013-08-30 17:15:00
12:35 PM,93.2,73.4,52,29.86,9.0,Variable,3.5,-,N/A,,Clear,0,2013-08-30 17:35:00
12:55 PM,93.2,73.4,52,29.86,9.0,SSW,4.6,11.5,N/A,,Clear,210,2013-08-30 17:55:00
1:15 PM,95.0,71.6,47,29.86,9.0,West,9.2,-,N/A,,Clear,260,2013-08-30 18:15:00
1:35 PM,95.0,69.8,44,29.85,9.0,WSW,6.9,-,N/A,,Clear,250,2013-08-30 18:35:00
1:55 PM,96.8,71.6,44,29.84,10.0,WSW,5.8,13.8,N/A,,Clear,250,2013-08-30 18:55:00
2:15 PM,96.8,69.8,41,29.84,9.0,SW,10.4,-,N/A,,Clear,220,2013-08-30 19:15:00
2:35 PM,96.8,69.8,41,29.83,9.0,SW,9.2,-,N/A,,Clear,230,2013-08-30 19:35:00
2:55 PM,96.8,71.6,44,29.82,10.0,SSW,9.2,-,N/A,,Clear,210,2013-08-30 19:55:00
3:15 PM,98.6,69.8,39,29.82,10.0,West,5.8,-,N/A,,Clear,270,2013-08-30 20:15:00
3:35 PM,98.6,69.8,39,29.82,10.0,WSW,6.9,-,N/A,,Clear,250,2013-08-30 20:35:00
3:55 PM,98.6,69.8,39,29.81,9.0,WSW,10.4,-,N/A,,Clear,250,2013-08-30 20:55:00
4:15 PM,96.8,69.8,41,29.81,10.0,Variable,6.9,13.8,N/A,,Clear,0,2013-08-30 21:15:00
4:35 PM,98.6,69.8,39,29.80,9.0,WSW,5.8,-,N/A,,Clear,240,2013-08-30 21:35:00
4:55 PM,98.6,69.8,39,29.80,9.0,SSW,4.6,-,N/A,,Clear,210,2013-08-30 21:55:00
5:15 PM,96.8,69.8,41,29.79,9.0,SSW,4.6,-,N/A,,Clear,200,2013-08-30 22:15:00
5:35 PM,96.8,71.6,44,29.79,10.0,SW,4.6,-,N/A,,Partly Cloudy,220,2013-08-30 22:35:00
5:55 PM,96.8,71.6,44,29.78,10.0,SW,4.6,-,N/A,,Scattered Clouds,220,2013-08-30 22:55:00
6:15 PM,95.0,71.6,47,29.78,10.0,WSW,5.8,-,N/A,,Mostly Cloudy,250,2013-08-30 23:15:00
6:35 PM,93.2,71.6,49,29.78,9.0,North,5.8,-,N/A,,Scattered Clouds,10,2013-08-30 23:35:00
6:55 PM,93.2,73.4,52,29.78,9.0,North,4.6,-,N/A,,Partly Cloudy,360,2013-08-30 23:55:00
7:15 PM,91.4,73.4,55,29.78,10.0,North,4.6,-,N/A,,Clear,360,2013-08-31 00:15:00
7:35 PM,87.8,75.2,66,29.78,10.0,Calm,Calm,-,N/A,,Scattered Clouds,0,2013-08-31 00:35:00
7:55 PM,87.8,75.2,66,29.79,10.0,Calm,Calm,-,N/A,,Mostly Cloudy,0,2013-08-31 00:55:00
8:15 PM,87.8,75.2,66,29.79,9.0,Calm,Calm,-,N/A,,Mostly Cloudy,0,2013-08-31 01:15:00
8:35 PM,86.0,77.0,74,29.80,10.0,NNE,8.1,-,N/A,,Scattered Clouds,20,2013-08-31 01:35:00
8:55 PM,86.0,78.8,79,29.80,10.0,North,10.4,-,N/A,,Clear,10,2013-08-31 01:55:00
9:15 PM,84.2,77.0,79,29.81,10.0,North,10.4,-,N/A,,Clear,10,2013-08-31 02:15:00
9:35 PM,84.2,77.0,79,29.80,10.0,North,11.5,-,N/A,,Clear,360,2013-08-31 02:35:00
9:55 PM,82.4,77.0,84,29.80,10.0,North,12.7,-,N/A,,Clear,10,2013-08-31 02:55:00
10:15 PM,82.4,75.2,79,29.80,10.0,North,10.4,-,N/A,,Clear,10,2013-08-31 03:15:00
10:35 PM,80.6,75.2,84,29.80,10.0,NNE,10.4,-,N/A,,Clear,20,2013-08-31 03:35:00
10:55 PM,80.6,75.2,84,29.80,10.0,North,11.5,-,N/A,,Clear,10,2013-08-31 03:55:00
11:15 PM,80.6,75.2,84,29.81,10.0,North,11.5,-,N/A,,Clear,360,2013-08-31 04:15:00
11:35 PM,78.8,73.4,83,29.81,10.0,North,12.7,-,N/A,,Clear,360,2013-08-31 04:35:00
11:55 PM,78.8,73.4,83,29.81,10.0,North,9.2,-,N/A,,Clear,10,2013-08-31 04:55:00